RH
21 21 21 21 21 22 21 21 21 21 22 22 22 21 21 20 20 20 19 19 18 18 18 18 18 17 18 18 18 18 19 19 19 19 19 20 19 20 20 19 19 19 20 19 19 18 17 17 16 16 16 16
23 23 23 23 22 22 22 22 22 22 22 21 20 19 19 18 18 18 17 17 16 16 15 15 14 14 14 14 15 15 16 16 17 17 17 18 18 19 19 19 19 19 20 20 21 21 21 20 19 18 17 17
25 25 24 23 22 23 23 23 22 21 20 19 18 17 17 16 15 14 13 12 10 10 9 8 8 7 7 7 8 8 8 9 10 11 12 13 13 14 15 16 17 18 18 19 20 21 22 22 22 22 20 20
25 25 24 23 23 23 22 21 20 19 18 17 16 13 11 10 8 6 5 4 3 3 3 2 2 2 2 2 2 2 3 3 3 4 4 5 6 6 7 9 10 12 13 14 16 18 19 21 22 23 23 22
24 24 24 24 23 22 20 19 18 17 15 12 9 6 4 3 2 2 2 2 1 2 2 2 2 1 2 2 1 2 1 1 2 1 2 2 2 2 2 3 3 4 5 6 8 10 12 14 16 19 21 22
25 24 24 22 21 20 18 15 12 9 7 4 3 2 2 2 2 2 2 2 2 2 2 2 2 2 2 2 2 2 2 1 2 1 1 2 1 2 2 1 2 2 2 2 2 3 4 5 7 9 12 15
25 23 22 20 18 15 11 7 5 3 2 2 2 2 2 2 2 2 2 2 2 2 2 2 2 2 2 2 2 2 2 2 2 2 2 2 2 1 2 2 1 2 1 1 2 1 2 2 2 3 3 5
23 22 19 15 11 6 3 2 2 2 2 2 2 2 2 2 2 2 2 2 2 2 2 2 2 2 2 2 2 2 2 2 2 2 2 2 2 2 2 2 2 2 2 2 2 1 2 1 1 1 1 1
20 16 12 7 4 2 2 2 2 2 2 2 2 2 2 2 2 2 2 2 2 2 2 2 2 2 2 2 2 3 2 2 2 2 3 2 2 2 2 2 2 2 2 2 2 2 2 2 2 1 2 1
13 8 4 2 2 2 2 2 2 2 2 2 2 2 2 2 2 2 2 2 2 2 3 2 3 3 3 3 3 3 3 3 3 3 3 3 3 3 3 3 3 3 3 3 2 2 2 2 2 2 2 2
5 2 2 2 2 2 2 2 2 2 2 2 2 2 2 2 2 3 2 3 3 3 3 3 3 3 3 3 3 3 4 4 3 4 4 4 4 3 4 3 3 3 3 3 3 3 3 3 3 2 2 2
2 2 2 2 2 2 2 2 2 2 2 2 2 2 2 3 2 3 3 3 3 3 4 4 4 4 4 4 4 4 4 5 4 4 4 4 5 4 5 4 4 4 4 4 4 4 3 3 3 3 3 3
2 2 2 2 2 2 2 2 3 2 3 2 3 3 3 3 3 4 4 4 4 4 4 4 5 5 5 5 5 5 5 6 5 6 6 6 6 6 6 5 5 5 5 5 5 5 4 4 4 4 4 3
2 2 2 2 2 3 2 3 3 3 3 3 3 3 4 4 4 4 4 5 5 5 5 5 6 6 6 7 6 7 7 7 7 7 8 7 8 7 7 7 7 7 7 7 6 6 5 5 5 5 5 4
2 2 2 3 3 3 3 3 3 3 3 4 4 4 5 5 5 5 5 6 6 6 7 7 8 8 8 8 9 9 9 9 9 9 9 9 9 9 9 9 9 9 9 9 8 8 8 7 7 6 6 5
2 3 3 3 3 3 3 4 4 4 4 4 5 5 5 6 6 6 7 7 8 8 9 9 9 10 10 10 11 11 11 11 11 11 11 11 11 10 11 10 10 10 10 10 10 10 10 9 9 9 8 8
3 3 3 3 3 4 4 4 4 5 5 5 6 6 6 7 7 8 9 9 10 10 10 11 11 11 12 12 12 13 13 13 12 13 12 12 12 12 12 12 12 12 12 12 11 11 11 11 11 11 10 10
3 3 3 4 4 4 5 5 5 5 6 7 7 8 8 9 9 10 11 11 11 12 12 12 13 13 13 14 14 15 15 15 15 14 14 15 14 14 14 14 14 14 13 13 13 13 12 12 12 12 12 12
3 4 4 4 4 5 6 6 6 7 7 8 9 9 10 10 11 11 12 12 12 12 13 13 13 14 14 15 15 16 16 15 16 16 16 16 16 16 16 16 16 16 16 15 15 15 14 14 13 13 13 13
4 4 5 5 6 6 7 7 8 9 9 10 10 11 11 12 12 13 12 12 13 13 12 12 12 13 13 14 14 14 15 14 15 15 15 16 16 17 17 18 18 18 18 18 17 17 16 16 15 15 14 14
5 6 6 7 7 8 8 9 9 10 10 10 11 11 12 12 12 12 12 12 12 11 11 11 11 11 11 11 12 12 12 13 13 13 14 14 15 16 16 17 18 19 19 19 19 19 19 18 18 17 16 16
6 7 8 8 8 9 9 10 10 10 10 10 10 10 10 11 11 10 11 10 11 10 9 9 10 10 10 10 11 11 12 12 13 13 14 14 14 15 15 16 16 18 19 20 20 21 21 20 20 19 18 18
8 8 8 9 9 9 10 10 10 9 9 9 9 9 9 9 9 9 9 9 9 9 8 9 9 10 10 11 11 12 12 13 14 14 15 15 16 16 16 16 16 18 19 20 21 21 22 22 22 21 20 20
8 8 9 9 9 9 9 10 9 8 7 7 7 8 7 8 8 9 9 9 8 8 8 9 9 10 11 11 12 12 13 13 14 15 15 16 17 17 18 18 18 19 20 20 21 22 23 23 24 23 22 22
8 9 8 8 8 8 8 9 8 7 6 6 7 6 6 7 9 9 9 9 9 8 8 9 10 11 12 12 12 13 13 13 13 14 15 16 17 18 19 21 21 21 22 22 23 23 24 25 26 25 25 24
9 8 8 7 7 7 7 7 6 6 6 5 5 5 5 8 9 9 9 9 9 9 9 10 12 13 13 13 12 13 13 14 14 15 15 16 18 19 20 22 22 24 25 26 25 26 26 27 29 28 27 26
9 7 7 6 7 7 6 6 5 6 5 5 5 5 6 8 9 8 8 9 9 10 10 11 12 13 13 13 13 13 13 14 15 16 17 18 19 21 22 23 24 25 27 29 29 29 29 29 30 31 30 28
9 7 6 6 6 6 5 5 5 5 5 5 6 7 7 9 9 8 8 8 9 10 11 11 12 13 14 14 13 13 13 14 16 17 18 19 20 22 24 25 25 26 28 30 32 32 32 33 33 32 32 30
9 8 6 5 5 5 5 5 5 5 5 6 7 7 8 9 10 9 8 9 9 10 12 12 13 14 14 14 14 13 13 13 15 18 19 19 20 21 24 26 27 28 29 31 34 36 37 38 37 36 34 33
10 8 7 5 4 4 5 5 5 5 5 6 7 8 9 10 10 10 10 10 10 11 13 14 14 15 15 15 15 15 14 14 15 16 18 19 20 22 24 27 29 31 31 32 35 38 41 43 42 40 38 36
10 9 7 6 5 5 5 6 6 6 7 7 7 8 9 10 11 12 13 13 13 13 14 15 16 16 16 16 17 17 16 15 15 15 16 18 19 21 24 28 32 34 35 36 37 39 41 46 47 45 43 39
Wind_Speed
21 21 21 21 21 21 22 22 22 21 21 20 20 20 20 20 20 21 21 21 21 21 21 22 22 22 22 23 23 23 24 24 24 25 25 25 25 25 25 26 26 26 26 26 26 25 26 26 27 27 27 27
22 22 22 22 22 22 22 21 21 20 20 20 20 20 21 21 21 21 21 21 21 21 22 22 22 22 23 23 23 23 23 24 24 25 25 25 25 25 26 26 26 26 26 26 26 26 26 26 27 27 28 28
23 23 23 23 22 21 20 20 20 20 20 21 21 21 21 21 21 21 22 22 22 22 22 22 22 22 22 22 22 22 23 23 24 24 24 25 25 26 26 26 26 26 27 27 27 27 27 27 27 27 28 29
24 23 23 22 21 21 20 20 21 21 21 21 21 21 21 21 21 21 21 21 21 21 21 21 21 21 21 21 21 22 22 22 22 23 23 23 24 25 25 25 26 26 27 27 28 28 28 28 28 28 28 28
23 23 21 21 20 20 21 21 21 21 21 21 21 21 20 20 20 20 20 20 20 20 19 19 19 20 20 20 20 20 21 21 21 21 22 22 22 23 24 24 25 25 26 27 27 28 28 28 29 29 29 29
23 22 21 21 21 20 21 21 21 21 21 20 20 20 19 19 19 19 18 18 19 18 18 18 18 18 18 18 19 19 19 19 19 19 20 20 20 21 22 22 23 24 25 25 26 27 28 28 29 29 30 30
22 22 22 21 21 21 21 20 20 20 19 19 19 19 18 18 18 18 17 17 17 17 18 18 17 18 18 18 18 18 18 18 18 19 19 19 19 20 20 20 21 21 22 23 24 25 26 27 28 28 29 30
23 22 22 22 21 21 20 19 19 18 18 18 18 17 17 17 17 17 17 17 17 18 18 18 18 18 18 18 19 19 19 19 19 19 20 20 20 19 20 20 20 20 21 21 22 22 23 24 25 26 27 28
23 23 22 21 20 19 19 18 18 17 17 17 17 17 17 17 17 17 18 18 19 19 19 19 19 20 20 20 20 20 21 21 21 21 21 22 22 21 21 21 21 21 21 21 21 22 22 22 23 24 25 26
23 22 21 20 19 18 18 17 17 17 17 17 17 17 18 18 18 19 19 20 20 20 21 21 21 21 22 22 22 22 23 23 23 23 24 24 24 24 24 24 24 24 23 23 23 23 23 23 23 24 24 24
22 20 19 19 18 18 17 17 17 17 18 18 19 19 19 20 20 20 21 21 22 22 23 23 23 23 24 24 24 24 25 25 25 25 26 26 26 27 27 27 27 27 27 26 26 26 26 25 25 25 25 25
21 19 18 19 18 18 18 18 18 19 19 20 20 21 21 22 22 22 23 23 24 24 24 25 25 25 25 26 26 26 27 27 27 27 28 28 28 29 29 29 29 29 29 29 29 29 29 28 28 28 28 27
20 19 19 19 19 20 20 20 20 21 21 21 22 23 23 24 24 24 25 25 25 25 26 26 26 27 26 27 27 27 28 28 28 29 29 29 30 30 30 30 31 31 32 32 32 32 32 31 31 31 30 30
20 20 20 21 20 21 22 22 23 23 23 23 24 25 25 26 26 26 26 26 26 26 26 27 27 27 27 27 28 28 29 29 29 29 30 30 31 31 31 31 32 32 32 33 33 33 34 34 34 34 33 33
21 21 22 22 22 23 23 23 24 24 25 25 25 26 27 27 27 27 27 27 27 27 27 27 28 28 28 28 29 29 30 30 30 30 31 31 32 32 32 33 33 33 33 33 34 34 34 34 35 35 35 35
22 23 23 23 24 24 24 25 25 25 26 26 26 27 27 27 28 27 27 28 28 28 28 28 28 29 29 29 30 30 30 31 31 31 32 32 33 33 33 34 34 34 34 34 34 34 34 35 35 35 35 36
24 24 24 24 25 25 25 26 27 27 27 27 27 28 28 28 28 28 28 28 29 29 29 29 29 29 30 30 30 31 31 31 32 32 33 33 34 34 35 35 35 35 35 35 35 35 35 35 35 35 35 36
25 25 24 25 26 25 26 28 28 28 28 28 29 29 29 29 29 29 29 29 29 29 29 29 30 30 30 30 31 31 32 32 33 33 34 34 35 35 35 36 36 36 36 36 36 36 36 36 36 36 36 36
25 26 26 27 27 26 27 29 29 29 29 29 29 29 29 30 29 29 29 29 29 29 29 29 29 30 30 31 31 32 32 33 33 34 35 35 35 36 36 36 37 37 37 37 37 37 37 37 37 37 37 37
26 27 27 27 28 27 28 30 30 30 30 30 30 29 29 30 30 29 29 29 29 29 29 29 30 30 30 31 31 32 33 33 34 35 35 35 36 36 37 37 37 37 37 37 37 37 37 37 37 38 38 38
28 27 27 28 29 28 29 31 31 30 30 30 30 30 29 29 30 30 30 30 30 30 30 30 30 31 31 31 32 33 33 34 34 35 36 36 36 36 37 37 37 37 37 38 38 38 38 38 38 38 39 39
28 28 28 29 29 29 29 31 32 31 30 31 31 30 29 29 31 31 31 31 31 31 31 31 31 32 32 32 33 33 34 34 35 36 36 37 37 37 38 38 38 38 38 38 38 38 38 38 38 39 39 39
29 29 29 29 30 30 30 31 32 32 31 31 32 31 30 30 32 32 32 32 32 32 32 32 33 33 33 33 33 34 34 35 35 36 36 37 37 38 38 39 39 39 38 39 39 39 39 39 39 39 40 40
29 29 30 30 31 30 30 31 33 33 32 32 32 32 31 32 33 33 33 34 34 34 34 34 34 34 34 34 34 35 35 36 36 36 37 37 38 38 39 39 40 39 39 39 40 40 40 40 40 40 40 40
29 30 30 32 32 31 31 32 33 33 33 32 33 33 32 33 35 34 35 35 36 36 36 36 36 36 36 36 36 36 37 37 38 38 38 39 39 40 40 40 41 40 40 41 41 41 41 41 41 41 42 42
31 31 31 33 33 32 32 33 34 34 34 34 34 34 33 34 36 36 36 37 38 38 38 38 37 37 37 38 38 38 38 38 39 39 40 40 41 41 42 42 42 42 42 42 42 42 42 41 41 41 43 44
32 32 33 34 34 34 34 34 35 35 35 35 35 35 34 35 37 38 38 39 40 40 40 40 39 39 39 39 40 39 39 40 40 40 41 41 42 42 43 44 44 44 43 43 43 44 44 43 42 42 42 43
33 34 34 35 35 36 36 36 37 36 36 36 36 36 35 36 38 40 40 40 41 41 41 42 41 41 41 41 41 41 41 41 41 41 41 42 42 43 44 44 45 46 46 45 44 45 45 45 45 44 44 44
35 36 36 36 37 37 38 38 38 38 38 38 38 37 37 37 40 41 42 42 42 42 42 43 43 43 43 43 43 43 43 43 42 42 42 42 43 43 44 45 45 47 47 47 46 45 46 45 46 46 45 45
37 38 38 38 39 38 39 40 40 40 40 40 40 39 38 39 41 42 43 43 43 43 44 44 44 44 44 44 44 45 45 45 44 44 44 44 44 44 44 45 46 47 48 48 48 47 46 46 46 46 47 47
39 40 40 40 40 39 40 41 41 41 42 43 43 42 41 41 41 42 43 44 45 45 45 45 45 46 46 46 46 46 47 47 46 46 45 45 45 45 44 44 45 47 48 49 49 50 49 47 46 46 47 47
Wind_Direction
284 286 288 290 291 291 291 291 291 291 291 292 291 292 292 292 292 292 292 292 292 292 291 291 290 290 289 289 289 289 289 289 289 288 288 287 287 287 287 286 286 285 285 284 283 282 280 280 279 279 279 279
286 287 288 289 289 289 289 289 290 290 291 291 291 293 293 294 294 295 295 295 295 294 294 293 293 292 291 291 290 290 289 289 290 289 289 288 288 287 287 286 286 285 285 284 284 283 281 280 278 278 277 277
286 287 288 288 287 287 288 288 289 289 290 291 292 293 294 295 295 295 296 296 296 296 296 295 295 294 294 294 293 292 291 291 291 290 290 290 289 289 288 287 287 286 285 285 284 284 283 281 280 278 277 277
285 285 286 286 287 287 288 289 289 290 290 291 292 293 294 295 295 296 297 297 298 298 298 298 298 299 298 298 297 297 295 295 294 293 293 292 291 290 290 289 288 287 286 286 285 284 283 283 282 280 279 277
284 283 284 285 285 286 287 288 289 290 291 292 293 294 295 296 297 297 299 300 301 302 302 302 302 302 302 303 302 302 301 300 299 298 296 295 294 293 292 291 290 289 288 287 286 285 284 284 283 282 281 280
282 283 283 284 285 286 287 288 289 290 291 293 294 296 297 298 299 300 301 303 304 305 306 306 307 306 307 307 306 306 306 305 304 303 301 300 298 297 295 294 293 292 291 289 288 288 287 286 285 283 283 282
280 281 282 283 285 286 287 288 288 290 291 293 294 296 298 299 301 302 304 305 306 307 307 308 308 308 308 308 308 308 307 307 307 306 304 303 302 301 300 298 297 296 294 293 292 291 290 289 288 286 285 284
279 280 281 283 284 285 285 286 287 289 291 292 294 296 297 299 301 302 304 304 305 305 305 305 305 305 305 305 305 305 304 304 303 303 302 301 301 300 299 298 297 296 296 295 294 293 292 291 290 289 288 287
279 279 281 281 282 282 282 284 286 288 289 291 292 294 296 297 298 299 300 300 300 301 300 300 301 301 300 300 301 300 300 299 299 298 298 297 296 296 295 294 294 293 292 292 292 291 291 291 290 290 290 289
277 278 279 279 279 280 281 282 284 286 287 288 290 291 292 293 294 294 295 295 295 295 295 295 295 295 296 296 296 296 296 295 295 295 295 295 294 294 293 293 292 291 290 290 289 289 288 288 288 288 288 288
274 275 276 276 278 280 281 282 284 285 285 286 287 287 288 289 290 290 290 290 290 291 291 291 291 292 292 292 293 293 293 293 293 293 293 292 292 292 292 292 291 290 290 289 288 287 286 286 285 285 285 285
273 274 275 276 278 281 281 282 283 283 284 285 285 285 286 286 287 287 287 287 287 287 288 289 289 289 290 291 291 292 292 292 292 291 291 291 291 290 290 290 290 290 289 289 288 287 286 285 284 283 283 282
272 274 276 277 279 281 281 282 283 282 283 284 284 285 285 285 285 285 286 286 286 287 288 288 289 290 290 291 291 291 291 291 291 291 291 291 291 290 291 290 290 290 289 289 288 288 287 285 285 283 282 281
272 274 276 277 280 281 281 283 283 283 284 284 285 285 285 285 285 286 286 286 287 288 289 290 290 291 291 292 292 291 291 291 291 292 292 291 291 291 291 290 290 289 288 288 287 287 286 285 285 284 283 282
273 274 275 277 279 279 281 282 282 283 284 284 284 284 284 284 284 285 285 286 287 288 289 290 291 291 292 292 292 292 293 293 293 293 293 293 292 291 291 290 289 288 288 287 286 285 284 284 283 282 282 281
274 274 276 278 278 279 282 282 282 284 284 284 284 283 283 284 284 285 286 287 288 289 290 290 291 292 292 293 293 294 294 294 295 294 294 293 292 292 291 290 289 289 288 287 286 285 284 283 281 281 280 279
274 276 278 279 280 282 283 283 284 284 284 284 284 283 284 284 285 286 287 288 289 290 290 291 292 292 293 293 294 294 294 294 294 293 293 292 292 291 290 289 289 288 287 287 286 285 284 283 282 281 280 279
276 279 280 280 281 283 283 283 284 283 283 283 283 283 284 284 285 286 286 287 288 289 290 291 292 292 292 293 294 294 294 294 294 293 292 292 291 291 290 289 289 288 287 287 286 285 285 284 283 282 281 280
278 280 280 280 281 282 281 281 282 281 281 282 281 282 283 284 284 285 285 285 286 287 288 289 290 291 292 293 293 294 294 294 294 294 293 292 292 291 291 290 290 289 288 287 287 286 285 285 284 283 282 282
279 279 280 280 280 281 280 280 280 281 281 281 281 281 281 283 283 283 284 284 285 286 287 289 289 290 291 292 292 293 293 293 293 293 292 292 292 291 291 291 290 290 289 288 287 287 286 286 285 284 284 283
278 279 279 279 280 281 280 280 281 281 281 281 281 281 281 282 283 283 283 284 285 286 288 289 289 290 291 291 292 292 292 292 292 292 292 292 292 292 292 291 291 290 290 289 288 287 286 286 285 285 285 284
278 279 279 279 280 281 280 280 281 281 281 281 281 283 283 283 283 283 283 284 285 286 287 288 288 289 289 290 290 291 292 292 293 293 293 293 293 293 293 292 292 292 291 290 289 288 288 287 286 285 285 285
278 279 280 280 280 280 281 280 281 281 282 282 283 284 284 283 283 283 284 284 285 285 285 286 286 286 287 287 288 289 290 291 292 293 293 293 294 294 293 293 293 292 292 291 290 290 289 288 287 286 285 284
279 281 281 281 281 281 281 280 280 281 283 283 284 284 284 283 282 283 283 283 283 283 283 284 284 285 285 286 287 288 289 290 291 292 293 294 294 294 294 294 293 293 293 292 291 291 290 289 288 287 286 284
279 280 280 280 281 281 280 279 280 282 283 284 285 285 285 284 283 283 283 283 283 283 283 284 284 285 285 286 287 288 289 290 291 293 294 295 295 296 296 296 295 295 294 294 293 292 291 291 290 289 287 286
277 278 279 280 280 281 280 280 281 282 284 285 285 285 286 286 284 284 284 284 284 284 284 284 285 285 285 285 286 287 288 290 291 292 294 295 296 296 297 297 296 296 295 295 294 293 292 291 290 289 288 287
277 278 278 279 280 280 281 281 282 283 284 284 285 286 287 286 285 285 285 285 285 285 285 285 285 285 285 285 286 287 288 289 290 291 292 294 295 295 296 296 296 296 295 294 294 293 292 291 290 289 288 287
276 277 278 279 280 281 281 282 283 283 284 285 285 286 287 286 285 286 286 286 286 286 286 286 286 286 286 286 286 286 287 287 288 289 290 291 292 292 293 294 295 295 295 294 294 294 293 293 292 290 289 288
275 276 278 279 280 281 282 284 284 285 285 285 285 286 286 286 286 286 287 287 287 287 286 286 286 286 286 286 286 286 286 286 286 287 288 288 289 290 291 292 293 294 294 294 294 294 293 293 292 291 291 290
273 274 277 279 280 282 284 285 285 285 285 285 285 285 285 285 285 286 287 287 287 287 286 286 286 286 286 286 286 286 286 286 285 286 286 287 288 290 291 292 293 293 293 293 293 293 292 292 292 291 291 290
271 273 275 279 281 283 283 284 285 286 285 284 284 284 284 283 284 285 286 287 287 287 287 286 286 286 286 286 287 287 287 287 286 286 286 286 287 289 290 292 293 293 293 293 293 292 291 291 291 291 290 289